Tracking 19245 objects as of 18-Aug-2018
HD Live streaming from Space Station
objects crossing your sky now

INTELSAT 3-F8

Track INTELSAT 3-F8 now!
INTELSAT 3-F8 is classified as:


NORAD ID: 4478
Int'l Code: 1970-055A
Perigee: 33,836.7 km
Apogee: 36,652.6 km
Inclination: 1.4 °
Period: 1,408.1 minutes
Semi major axis: 41615 km
RCS: 2.5127 m2 (large)
Launch date: July 23, 1970
Source: International Telecommunications Satellite Organization (ITSO)
Launch site: AIR FORCE EASTERN TEST RANGE (AFETR)
aabbcc
Your satellite tracking list
Your tracking list is empty




NASA's NSSDC Master Catalog

Two Line Element Set (TLE):
1  4478U 70055A   18228.91890925 -.00000060 +00000-0 +00000-0 0  9991
2  4478 001.3987 298.2022 0338314 190.3815 146.9148 01.02262885093567
Source of the keplerian elements: AFSPC